Location: Peterborough
(44.3091°N, 78.3197°W)
Time: 06:40:57
(UTC-04:00)

A-11 Canister half - Pass Details

Date: 30 March 2023
Orbit: 1513 x 1686 km, 47.2° (Epoch: 04 June)

Event Time Altitude Azimuth Distance (km) Brightness Sun altitude
Rises 03:42:09 0° 294° (WNW) 4,917 11.5 -32.1°
Enters shadow 03:43:08 - 293° (WNW) 4,615 11.3 -32.0°
Exits shadow 03:57:38 43° 180° (S) 2,234 9.5 -30.2°
Drops below altitude 10° 04:04:39 10° 147° (SSE) 3,924 11.0 -29.2°
Sets 04:07:54 0° 143° (SE) 4,896 11.6 -28.8°
